STARLINK-31916, 59795

Orbit data source: Space-Track

STARLINK-31916, 59795 is a payload satellite owned by SpaceX/Seattle (US) in LEO that was launched on Sat, 18 May 2024 UTC via an FALCON 9 launch vehicle from the Air Force Eastern Test Range (AFETR). Payload-class satellites include a variety of spacecraft equipped with specific instruments for various scientific and technological missions. These include communications satellites like Starlink; space stations such as the ISS; scientific satellites like the Hubble; Earth observation satellites from companies like Planet Labs, Umbra, and HawkEye 360; GPS; miniature CubeSats for education and research; and military/defense satellites.

Loading next visibility...
Identifier
59795, 2024-093P
Orbit
LEO
Country
Flag of USUS
Related business
Manufacturer
SpaceX/Seattle
Mission
Operational Commercial Communications
Bus & Motor
STARLINK V2M, Unknown motor
Mass
730 kg wet, ~700 kg dry
Launch date (UTC)
2024-05-18 (1 year ago)
Launch vehicle
FALCON 9
Launch site
Air Force Eastern Test Range (AFETR)
Object type
Payload
Rocket body
Debris
Shape & HBR
Box + 2 Pan, 17.7 m
Radar Cross Section
33.884 m², Large (>1 m²)

Expand to show TLE details & history
Last TLE update: 19 hours ago

TLE from 19 hours ago
0 STARLINK-31916
1 59795U 24093P   25289.04362438  .00001712  00000-0  71703-4 0  9992
2 59795  43.0024 305.7841 0000923 229.2510 130.8262 15.27587600 80576
Epoch: 2025-10-16T01:02Z
TLE epoch observation values (Epoch: 2025-10-16T01:02:49.146Z)
Latitude
0.00001°
Longitude
-94.72968°
Altitude
483.216 km
Speed
7.625 km/s
True Right ascension
20h 23m 08s
True Declination
0° 00' 00"
Sunlit
Object was in daylight at epoch
Visualization orbit readout
Latitude
Unknown
Longitude
Unknown
Altitude
Unknown
Speed
Unknown
Apparent Right ascension
Unknown
Apparent Declination
Unknown
Sunlit
N/A
Visualization observer readout
Local Sidereal Time
15:09:53
Azimuth
Unknown
Elevation
Unknown
Doppler factor
Unknown
Orbital elements
Apogee altitude
485.605 km
Perigee altitude
484.338 km
Semi-major axis
6,863.108 km
Eccentricity
0.00009
Inclination
43.0024°
RAAN
305.7841°
Arg. of periapsis
229.251°
True anomaly
130.8342°
Mean anomaly
130.8262°
Eccentric anomaly
130.8302°
Mean motion
3.81735 °/min
Orbital period
94.31 mins
BSTAR
0.000071703
Loading maneuver chart data...
Computing Atmospheric mass density...
Loading historical data...
Loading historical data...
Loading historical data...
Loading historical data...
Loading historical data...
Loading historical data...
Loading historical data...

Documentation

Showing up to 5 results
|